| time (UTC) | temp F | wind direction | speed knots | gust knots | rain 1hr in | rain 24hr in | rain mn in | humidity % | barometer mb |
| 20260507034511 | 44 | 264 | 0.9 | 5.2 | 0.00 | 0.00 | 0.00 | 91 | 1007.0 |
| 20260507033011 | 44 | 270 | 1.7 | 5.2 | 0.00 | 0.00 | 0.00 | 90 | 1007.1 |
| 20260507031511 | 44 | 6 | 1.7 | 7.8 | 0.00 | 0.00 | 0.00 | 91 | 1006.9 |
| 20260507030011 | 44 | 336 | 1.7 | 5.2 | 0.00 | 0.00 | 0.00 | 91 | 1006.6 |
| 20260507024511 | 44 | 24 | 2.6 | 5.2 | 0.00 | 0.00 | 0.00 | 91 | 1006.4 |
| 20260507023011 | 45 | 10 | 1.7 | 7.8 | 0.00 | 0.00 | 0.00 | 90 | 1006.5 |
| 20260507021511 | 45 | 294 | 0.9 | 5.2 | 0.00 | 0.00 | 0.00 | 91 | 1006.4 |
| 20260507014510 | 45 | 96 | 0.9 | 4.3 | 0.00 | 0.00 | 0.00 | 91 | 1006.2 |
| 20260507013010 | 45 | 228 | 1.7 | 5.2 | 0.00 | 0.00 | 0.00 | 91 | 1006.0 |
| 20260507011510 | 45 | 54 | 0.9 | 2.6 | 0.00 | 0.00 | 0.00 | 90 | 1006.0 |
| 20260507010010 | 45 | 108 | 0.9 | 3.5 | 0.00 | 0.00 | 0.00 | 90 | 1006.1 |
| 20260507004510 | 45 | 42 | 1.7 | 3.5 | 0.00 | 0.00 | 0.00 | 89 | 1006.1 |
| 20260507003010 | 45 | 96 | 0.9 | 4.3 | 0.00 | 0.00 | 0.00 | 90 | 1006.0 |
| 20260507001510 | 45 | 0 | 1.7 | 5.2 | 0.00 | 0.00 | 0.00 | 89 | 1005.9 |
| 20260507000010 | 45 | 276 | 1.7 | 5.2 | 0.00 | 0.00 | 0.00 | 89 | 1005.9 |
| 20260506234510 | 45 | 306 | 1.7 | 4.3 | 0.00 | 0.00 | 0.00 | 90 | 1005.8 |
| 20260506233010 | 46 | 10 | 0.9 | 5.2 | 0.00 | 0.00 | 0.00 | 90 | 1005.7 |
| 20260506231510 | 46 | 293 | 1.7 | 5.2 | 0.00 | 0.00 | 0.00 | 90 | 1005.7 |
| 20260506230010 | 46 | 306 | 0.9 | 2.6 | 0.00 | 0.00 | 0.00 | 90 | 1005.6 |
| 20260506224510 | 47 | 66 | 0.0 | 1.7 | 0.00 | 0.00 | 0.00 | 91 | 1005.5 |
| 20260506223010 | 47 | 306 | 0.9 | 4.3 | 0.00 | 0.00 | 0.00 | 91 | 1005.3 |
| 20260506221510 | 47 | 270 | 0.9 | 2.6 | 0.00 | 0.00 | 0.00 | 91 | 1005.1 |
| 20260506220010 | 47 | 0 | 1.7 | 6.1 | 0.00 | 0.00 | 0.00 | 90 | 1004.9 |
| 20260506214510 | 47 | 72 | 1.7 | 4.3 | 0.00 | 0.00 | 0.00 | 91 | 1004.9 |
| 20260506213010 | 47 | 318 | 1.7 | 4.3 | 0.00 | 0.00 | 0.00 | 91 | 1004.9 |
| 20260506211509 | 48 | 270 | 0.9 | 4.3 | 0.00 | 0.00 | 0.00 | 91 | 1004.9 |
| 20260506210009 | 48 | 34 | 0.9 | 3.5 | 0.00 | 0.00 | 0.00 | 91 | 1005.0 |
| 20260506204509 | 49 | 306 | 0.0 | 3.5 | 0.00 | 0.00 | 0.00 | 90 | 1004.9 |
| 20260506203009 | 49 | 312 | 0.0 | 0.0 | 0.00 | 0.00 | 0.00 | 89 | 1004.9 |
| 20260506201509 | 49 | 228 | 0.0 | 2.6 | 0.00 | 0.00 | 0.00 | 88 | 1004.6 |
| 20260506200009 | 49 | 330 | 0.0 | 3.5 | 0.00 | 0.00 | 0.00 | 88 | 1004.5 |
| 20260506194509 | 49 | 318 | 0.9 | 5.2 | 0.00 | 0.00 | 0.00 | 87 | 1004.4 |
| 20260506193009 | 49 | 348 | 1.7 | 3.5 | 0.00 | 0.00 | 0.00 | 87 | 1004.5 |
| 20260506191509 | 49 | 36 | 0.9 | 3.5 | 0.00 | 0.00 | 0.00 | 87 | 1004.6 |
| 20260506190009 | 49 | 342 | 1.7 | 4.3 | 0.00 | 0.00 | 0.00 | 88 | 1004.4 |
| 20260506184509 | 50 | 324 | 0.9 | 4.3 | 0.00 | 0.00 | 0.00 | 89 | 1004.1 |
| 20260506183009 | 50 | 246 | 0.9 | 4.3 | 0.00 | 0.00 | 0.00 | 89 | 1003.9 |
| 20260506181509 | 50 | 318 | 1.7 | 4.3 | 0.00 | 0.00 | 0.00 | 89 | 1003.7 |
| 20260506180009 | 50 | 276 | 1.7 | 5.2 | 0.00 | 0.00 | 0.00 | 90 | 1003.8 |
| 20260506174509 | 51 | 254 | 2.6 | 5.2 | 0.00 | 0.00 | 0.00 | 89 | 1003.3 |
| 20260506173008 | 51 | 288 | 2.6 | 5.2 | 0.00 | 0.00 | 0.00 | 89 | 1003.5 |
| 20260506171508 | 51 | 300 | 1.7 | 5.2 | 0.00 | 0.00 | 0.00 | 90 | 1003.4 |
| 20260506170008 | 51 | 294 | 3.5 | 6.1 | 0.00 | 0.00 | 0.00 | 89 | 1003.4 |
| 20260506164508 | 51 | 306 | 2.6 | 6.1 | 0.00 | 0.00 | 0.00 | 90 | 1003.3 |
| 20260506163008 | 52 | 286 | 1.7 | 4.3 | 0.00 | 0.00 | 0.00 | 90 | 1003.3 |
| 20260506161508 | 52 | 264 | 3.5 | 5.2 | 0.00 | 0.00 | 0.00 | 90 | 1003.4 |
| 20260506160008 | 53 | 287 | 2.6 | 6.1 | 0.00 | 0.00 | 0.00 | 90 | 1003.4 |
| 20260506154508 | 53 | 221 | 2.6 | 6.1 | 0.00 | 0.00 | 0.00 | 90 | 1003.3 |
| 20260506153007 | 53 | 294 | 2.6 | 8.7 | 0.00 | 0.00 | 0.00 | 89 | 1003.1 |
| 20260506151506 | 53 | 312 | 3.5 | 8.7 | 0.00 | 0.00 | 0.00 | 90 | 1003.1 |
| 20260506150006 | 53 | 294 | 2.6 | 5.2 | 0.00 | 0.00 | 0.00 | 91 | 1002.9 |
| 20260506144506 | 54 | 288 | 2.6 | 4.3 | 0.00 | 0.00 | 0.00 | 91 | 1002.8 |
| 20260506143006 | 54 | 246 | 2.6 | 4.3 | 0.00 | 0.00 | 0.00 | 90 | 1002.8 |
| 20260506141506 | 54 | 314 | 2.6 | 5.2 | 0.00 | 0.00 | 0.00 | 90 | 1002.8 |
| 20260506140006 | 54 | 342 | 3.5 | 6.1 | 0.00 | 0.00 | 0.00 | 92 | 1002.6 |
| 20260506134505 | 54 | 270 | 2.6 | 5.2 | 0.00 | 0.00 | 0.00 | 92 | 1002.4 |
| 20260506133005 | 53 | 276 | 1.7 | 4.3 | 0.00 | 0.00 | 0.00 | 93 | 1002.3 |
| 20260506131505 | 53 | 281 | 1.7 | 4.3 | 0.00 | 0.00 | 0.00 | 93 | 1002.4 |
| 20260506130006 | 53 | 276 | 3.5 | 5.2 | 0.00 | 0.00 | 0.00 | 93 | 1002.2 |
| 20260506124505 | 53 | 320 | 2.6 | 5.2 | 0.00 | 0.00 | 0.00 | 93 | 1002.0 |
| 20260506123005 | 54 | 312 | 2.6 | 4.3 | 0.01 | 0.00 | 0.00 | 94 | 1001.9 |
| 20260506121506 | 54 | 252 | 1.7 | 4.3 | 0.01 | 0.00 | 0.00 | 94 | 1001.8 |
| 20260506120004 | 54 | 312 | 1.7 | 3.5 | 0.01 | 0.00 | 0.00 | 94 | 1001.7 |
| 20260506114504 | 55 | 326 | 1.7 | 4.3 | 0.00 | 0.00 | 0.00 | 94 | 1001.5 |
| 20260506113003 | 55 | 306 | 0.9 | 3.5 | 0.00 | 0.00 | 0.00 | 91 | 1001.4 |
| 20260506111503 | 56 | 282 | 0.0 | 1.7 | 0.00 | 0.00 | 0.00 | 86 | 1001.3 |
| 20260506110004 | 56 | 336 | 0.0 | 1.7 | 0.00 | 0.00 | 0.00 | 86 | 1001.4 |
| 20260506104504 | 56 | 0 | 0.0 | 1.7 | 0.00 | 0.00 | 0.00 | 84 | 1001.4 |
| 20260506103003 | 55 | 300 | 0.0 | 1.7 | 0.00 | 0.00 | 0.00 | 84 | 1001.4 |
| 20260506101503 | 55 | 288 | 0.0 | 1.7 | 0.00 | 0.00 | 0.00 | 84 | 1001.6 |
| 20260506100004 | 55 | 66 | 0.0 | 1.7 | 0.00 | 0.00 | 0.00 | 85 | 1001.4 |
| 20260506094503 | 55 | 30 | 0.9 | 2.6 | 0.00 | 0.00 | 0.00 | 85 | 1001.3 |
| 20260506093003 | 55 | 35 | 0.0 | 1.7 | 0.00 | 0.00 | 0.00 | 85 | 1001.4 |
| 20260506091503 | 54 | 144 | 0.0 | 2.6 | 0.00 | 0.00 | 0.00 | 85 | 1001.4 |
| 20260506090003 | 54 | 22 | 0.9 | 2.6 | 0.00 | 0.00 | 0.00 | 88 | 1001.3 |
| 20260506084503 | 53 | 356 | 0.9 | 3.5 | 0.00 | 0.00 | 0.00 | 88 | 1001.4 |
| 20260506083003 | 53 | 54 | 0.9 | 2.6 | 0.00 | 0.00 | 0.00 | 89 | 1001.4 |
| 20260506081503 | 52 | 36 | 0.9 | 3.5 | 0.00 | 0.00 | 0.00 | 89 | 1001.4 |
| 20260506073003 | 51 | 15 | 0.0 | 2.6 | 0.00 | 0.00 | 0.00 | 92 | 1001.5 |
| 20260506071503 | 51 | 78 | 0.0 | 1.7 | 0.00 | 0.00 | 0.00 | 93 | 1001.6 |
| 20260506061502 | 50 | 30 | 0.9 | 2.6 | 0.00 | 0.00 | 0.00 | 94 | 1001.5 |
| 20260506044502 | 49 | 78 | 1.7 | 5.2 | 0.00 | 0.00 | 0.00 | 93 | 1001.8 |
| 20260506043000 | 49 | 36 | 1.7 | 5.2 | 0.00 | 0.00 | 0.00 | 93 | 1001.8 |
| 20260506041500 | 49 | 75 | 1.7 | 6.1 | 0.00 | 0.00 | 0.00 | 93 | 1002.0 |
| 20260506040000 | 49 | 90 | 1.7 | 6.1 | 0.00 | 0.00 | 0.00 | 94 | 1002.0 |